Regional Weather Roundup
Issued by NWS

Home | Current Version | Previous Version | Graphics & Text | Print | Product List | Glossary On
Versions: 1 2 3 4 5 6 7 8 9 10 11 12 13 14 15 16 17 18 19 20 21 22 23 24 25 26 27 28 29 30 31 32 33 34 35 36 37 38 39 40 41 42 43 44 45 46 47 48 49 50
000
ASUS43 KDMX 080101
RWRIA

WEATHER ROUNDUP FOR IOWA
NATIONAL WEATHER SERVICE DES MOINES IA
700 PM CST WED DEC 07 2016

NOTE: "FAIR" INDICATES FEW OR NO CLOUDS BELOW 12,000 FEET WITH NO
SIGNIFICANT WEATHER AND/OR OBSTRUCTIONS TO VISIBILITY.

* - THESE STATIONS ARE NOT NWS STATIONS...THUS NOT UNDER NWS
QUALITY CONTROL.  THEY ALSO DO NOT REPORT WEATHER SUCH
AS PRECIPITATION OR FOG.

IAZ001>003-012>014-020>022-031>034-043>046-080200-
   NORTHWEST IOWA

CITY           SKY/WX    TMP DP  RH WIND       PRES   REMARKS
CARROLL *      CLEAR     18   9  68 W15G25    30.30S WCI   3
CHEROKEE *     CLEAR     16   7  67 W15G23    30.31R WCI   2
DENISON *      MOCLDY    18   7  62 W14       30.31S WCI   4
LE MARS *      MOCLDY    16   7  67 MISG      30.35R
ORANGE CITY *  CLEAR     14   7  73 NW29      30.29R WCI  -7
SHELDON *      MOCLDY    14   7  73 NW17G26   30.26R WCI  -3
SIOUX CITY     PTCLDY    19   6  57 NW21      30.37R WCI   3
SPENCER        CLEAR     15   6  67 W28G37    30.25R WCI  -5
STORM LAKE *   MOCLDY    16   9  73 NW24      30.27R WCI  -3
$$

IAZ055>058-069>071-079>083-090>094-080200-
   SOUTHWEST IOWA

CITY           SKY/WX    TMP DP  RH WIND       PRES   REMARKS
ATLANTIC *     CLEAR     19   9  63 W9G16     30.34R WCI   9
AUDUBON *      CLEAR     18   9  68 W7        30.31R WCI   8
CLARINDA *     CLEAR     19  10  68 W6        30.39S WCI  11
COUNCIL BLFS * CLEAR     19   7  58 NW13      30.37R WCI   7
CRESTON *      CLEAR     18   9  68 W10       30.33R WCI   6
HARLAN  *      CLEAR     18   9  68 NW18G25   30.37S WCI   2
LAMONI         CLEAR     19  11  70 W12       30.32R WCI   7
RED OAK *      CLEAR     18  10  73 W7        30.37S WCI   8
SHENANDOAH *   CLEAR     19  10  68 W6        30.40R WCI  11
$$

IAZ047>049-059>061-072>074-084-080200-
   CENTRAL IOWA

CITY           SKY/WX    TMP DP  RH WIND       PRES   REMARKS
AMES           CLEAR     20  11  68 W17G28    30.28R WCI   5
ANKENY *       CLEAR     21  10  63 W16       30.31R WCI   7
BOONE *        CLEAR     19   9  63 W17G29    30.26R WCI   4
CHARITON *     CLEAR     19  12  73 W10       30.30R WCI   8
DES MOINES     PTCLDY    21   9  59 NW15      30.30R WCI   8
GRINNELL*      CLEAR     20  12  71 W14G21    30.26S WCI   7
KNOXVILLE *    PTCLDY    21   9  58 W12       30.28S WCI   9
MARSHALLTOWN   CLEAR     19  12  74 W13       30.24R WCI   6
NEWTON *       CLEAR     19  10  68 W15       30.27R WCI   5
PELLA *        CLEAR     22  10  62 NW16      30.30S WCI   8
PERRY *          N/A     19  12  73 W18G25    30.31R WCI   4
$$

IAZ004>006-015-016-023>025-035-036-080200-
   NORTH CENTRAL IOWA

CITY           SKY/WX    TMP DP  RH WIND       PRES   REMARKS
ALGONA *       CLOUDY    18  10  73 W21       30.22R WCI   1
CLARION *      CLEAR     18  10  73 W20G25    30.23R WCI   1
ESTHERVILLE    CLOUDY    15   8  73 NW26G35   30.23R WCI  -4
FORT DODGE *   CLEAR     18   7  62 W10G18    30.26S WCI   6
MASON CITY     CLOUDY    19  10  68 W23G31    30.20R WCI   2
WEBSTER CITY * CLEAR     19  10  68 W20G28    30.23R WCI   4
IOWA FALLS *     N/A     20  13  72 W18G24    30.23R WCI   5
$$

IAZ007>011-017>019-026>030-037>042-050>054-066-080200-
   NORTHEAST IOWA

CITY           SKY/WX    TMP DP  RH WIND       PRES   REMARKS
CEDAR RAPIDS   CLOUDY    20  15  81 W13       30.22R WCI   7
CHARLES CITY * CLOUDY    21  12  68 W23G36    30.17R WCI   5
CLINTON *      FLURRIES  24  17  74 W21G28    30.19F WCI   9
DECORAH *      CLOUDY    21  14  73 W14G22    30.12R WCI   8
DUBUQUE        CLOUDY    21  13  71 W18       30.16R WCI   6
MONTICELLO *   FLURRIES  23  16  74 W17G23    30.19R WCI   9
OELWEIN *      CLOUDY    21  16  79 W16G25    30.17R WCI   7
WATERLOO       CLOUDY    22  12  65 W14G23    30.21R WCI   9
$$

IAZ064-065-067-068-078-080200-
   EAST CENTRAL IOWA

CITY           SKY/WX    TMP DP  RH WIND       PRES   REMARKS
DAVENPORT      CLOUDY    24  16  71 W18       30.22S WCI  10
IOWA CITY      MOCLDY    23  14  68 W15       30.27R WCI  10
MUSCATINE *    CLOUDY    25  12  58 W15       30.27S WCI  12
QUAD CITIES    CLOUDY    25  13  60 W21       30.22F WCI  11
$$

IAZ062-063-075>077-085>089-095>099-080200-
   SOUTHEAST IOWA

CITY           SKY/WX    TMP DP  RH WIND       PRES   REMARKS
BURLINGTON     PTCLDY    25  14  63 W12       30.26R WCI  14
FAIRFIELD *    PTCLDY    21  10  63 W10G16    30.28R WCI  10
FORT MADISON * PTCLDY    25  14  63 W10       30.28R WCI  15
KEOKUK *       MOCLDY    27  16  63 NW9G17    30.28R WCI  17
OSKALOOSA *      N/A     19  13  77 W9        30.29R WCI   8
CENTERVILLE *    N/A     19  10  68 W8        30.32R WCI   9
OTTUMWA        CLEAR     21  10  62 W12       30.28S WCI   9
WASHINGTON *   PTCLDY    21  14  73 W13       30.28S WCI   9
$$

ABBREVIATIONS USED IN REMARKS
   TC - TEMPERATURES IN CELSIUS
  WCI - WIND CHILL INDEX
   HX - HEAT INDEX
  VSB - VISIBILITY
$$




USA.gov is the U.S. government's official web portal to all federal, state and local government web resources and services.